Flag for U.S.A. Weather past 2 weeks in Salinas, California, U.S.A.

Now
74 °F

Sunny.


Feels Like: 77 °F
Forecast: 62 / 74 °F
Wind: 14 mph from Northwest

Location: Salinas Municipal Airport

Current Time: Aug 1, 2015 at 2:22:57 PM

Latest Report: Aug 1, 2015 at 1:53 PM


Visibility: 10 mi

Pressure: 29.99 "Hg

Humidity: 53%

Dew point: 56 °F

Location of SalinasLocation

Historic Weather in Salinas — Graph

°F

Salinas temperature yesterday

Maximum temperature yesterday: 72 °F (at 2:53 PM)
Minimum temperature yesterday: 62 °F (at 12:53 AM)
Average temperature yesterday: 65 °F

Past Weeks' High & Low Weather Summary

 TemperatureHumidityPressure
High89 °F (Jul 20, 11:53 AM)96% (Jul 29, 2:53 AM)30.14 "Hg (Jul 29, 2:53 AM)
Low54 °F (Jul 28, 4:53 AM)41% (Jul 20, 11:53 AM)29.84 "Hg (Jul 17, 6:53 PM)
Average65 °F73%30.00 "Hg
* Reported Jul 17 12:53 PM — Aug 1 12:53 PM, Salinas, Weather by CustomWeather, © 2015

Note: Actual official high and low records may vary slightly from our data, if they occured in-between our weather recording intervals... More about our weather records

Advertising

Salinas weather history for previous 24 hours

 ConditionsComfort  
Time TempWeatherWind HumidityBarometerVisibility
12:53 PM
Sat, Aug 1
74 °FSunny.12 mph56%30.01 "Hg10 mi
11:53 AM71 °FSunny.10 mph59%30.03 "Hg10 mi
10:53 AM70 °FSunny.10 mph61%30.05 "Hg10 mi
9:53 AM66 °FPartly sunny.5 mph70%30.06 "Hg10 mi
8:53 AM65 °FOvercast.6 mph73%30.06 "Hg10 mi
7:53 AM64 °FOvercast.6 mph75%30.06 "Hg9 mi
6:53 AM63 °FOvercast.7 mph81%30.05 "Hg9 mi
5:53 AM63 °FOvercast.5 mph81%30.03 "Hg10 mi
4:53 AM63 °FOvercast.No wind81%30.02 "Hg10 mi
3:53 AM63 °FOvercast.3 mph81%30.02 "Hg10 mi
2:53 AM63 °FOvercast.5 mph81%30.02 "Hg10 mi
1:53 AM63 °FOvercast.6 mph81%30.02 "Hg10 mi
12:53 AM64 °FOvercast.8 mph81%30.03 "Hg10 mi
11:53 PM
Fri, Jul 31
64 °FOvercast.7 mph81%30.03 "Hg10 mi
10:53 PM64 °FOvercast.8 mph81%30.03 "Hg10 mi
9:53 PM64 °FOvercast.8 mph81%30.03 "Hg10 mi
8:53 PM65 °FOvercast.6 mph78%30.03 "Hg10 mi
7:53 PM65 °FOvercast.8 mph81%30.02 "Hg9 mi
6:53 PM65 °FOvercast.9 mph81%30.01 "Hg10 mi
5:53 PM67 °FOvercast.10 mph76%30.02 "Hg10 mi
4:53 PM68 °FOvercast.14 mph73%30.02 "Hg10 mi
4:00 PM70 °FScattered clouds.14 mph69%30.00 "Hg10 mi
2:53 PM72 °FSunny.15 mph64%30.03 "Hg10 mi
Weather by CustomWeather, © 2015

See weather overviewHow to use our weather pages